| time (UTC) | temp C | wind direction | speed KPH | gust KPH | rain 1hr cm | rain 24hr cm | rain mn cm | humidity % | barometer mb |
| 20260504141007 | 12 | 235 | 1.6 | 8.0 | 0.00 | 0.00 | 0.00 | 44 | 1009.1 |
| 20260504140505 | 12 | 347 | 3.2 | 9.7 | 0.00 | 0.00 | 0.00 | 45 | 1009.1 |
| 20260504130509 | 11 | 184 | 4.8 | 11.3 | 0.00 | 0.00 | 0.00 | 47 | 1009.5 |
| 20260504110506 | 8 | 239 | 4.8 | 9.7 | 0.00 | 0.00 | 0.00 | 54 | 1009.8 |
| 20260504100507 | 8 | 180 | 4.8 | 8.0 | 0.00 | 0.00 | 0.00 | 56 | 1009.5 |
| 20260504082006 | 8 | 129 | 4.8 | 4.8 | 0.00 | 0.00 | 0.00 | 62 | 1009.8 |
| 20260504081505 | 8 | 177 | 6.4 | 6.4 | 0.00 | 0.00 | 0.00 | 63 | 1009.8 |
| 20260504081005 | 7 | 138 | 4.8 | 6.4 | 0.00 | 0.00 | 0.00 | 64 | 1009.8 |
| 20260504080509 | 7 | 279 | 3.2 | 3.2 | 0.00 | 0.00 | 0.00 | 63 | 1009.8 |
| 20260504050505 | 7 | 26 | 3.2 | 3.2 | 0.00 | 0.00 | 0.00 | 64 | 1010.5 |
| 20260504050006 | 7 | 71 | 1.6 | 4.8 | 0.00 | 0.00 | 0.00 | 63 | 1010.5 |
| 20260504045505 | 7 | 68 | 3.2 | 3.2 | 0.00 | 0.00 | 0.00 | 64 | 1010.8 |
| 20260504045006 | 7 | 72 | 1.6 | 3.2 | 0.00 | 0.00 | 0.00 | 62 | 1010.8 |
| 20260504044506 | 7 | 55 | 0.0 | 3.2 | 0.00 | 0.00 | 0.00 | 62 | 1010.5 |
| 20260504044006 | 7 | 45 | 4.8 | 6.4 | 0.00 | 0.00 | 0.00 | 61 | 1010.5 |
| 20260504043506 | 7 | 39 | 4.8 | 6.4 | 0.00 | 0.00 | 0.00 | 60 | 1010.5 |
| 20260504043005 | 7 | 57 | 4.8 | 4.8 | 0.00 | 0.00 | 0.00 | 58 | 1010.8 |
| 20260504042506 | 7 | 44 | 3.2 | 3.2 | 0.00 | 0.00 | 0.00 | 58 | 1010.8 |
| 20260504042006 | 7 | 3 | 1.6 | 4.8 | 0.00 | 0.00 | 0.00 | 57 | 1010.8 |
| 20260504041506 | 7 | 49 | 6.4 | 6.4 | 0.00 | 0.00 | 0.00 | 55 | 1011.2 |
| 20260504041006 | 7 | 47 | 4.8 | 4.8 | 0.00 | 0.00 | 0.00 | 55 | 1010.8 |
| 20260504040506 | 7 | 51 | 6.4 | 6.4 | 0.00 | 0.00 | 0.00 | 54 | 1010.5 |
| 20260504040005 | 7 | 58 | 4.8 | 6.4 | 0.00 | 0.00 | 0.00 | 53 | 1010.5 |
| 20260504035505 | 6 | 26 | 3.2 | 4.8 | 0.00 | 0.00 | 0.00 | 53 | 1010.8 |
| 20260504035005 | 6 | 50 | 4.8 | 6.4 | 0.00 | 0.00 | 0.00 | 51 | 1010.8 |
| 20260504034506 | 6 | 35 | 4.8 | 6.4 | 0.00 | 0.00 | 0.00 | 53 | 1010.5 |
| 20260504034006 | 6 | 59 | 4.8 | 6.4 | 0.00 | 0.00 | 0.00 | 52 | 1010.5 |
| 20260504033506 | 6 | 42 | 4.8 | 4.8 | 0.00 | 0.00 | 0.00 | 50 | 1010.5 |
| 20260504033005 | 6 | 50 | 4.8 | 4.8 | 0.00 | 0.00 | 0.00 | 54 | 1010.8 |
| 20260504032505 | 6 | 44 | 4.8 | 6.4 | 0.00 | 0.00 | 0.00 | 54 | 1010.5 |
| 20260504032006 | 6 | 37 | 8.0 | 8.0 | 0.00 | 0.00 | 0.00 | 56 | 1010.5 |
| 20260504031505 | 6 | 58 | 4.8 | 4.8 | 0.00 | 0.00 | 0.00 | 53 | 1010.5 |
| 20260504031005 | 6 | 32 | 4.8 | 6.4 | 0.00 | 0.00 | 0.00 | 55 | 1010.2 |
| 20260504030506 | 6 | 45 | 3.2 | 4.8 | 0.00 | 0.00 | 0.00 | 51 | 1010.2 |
| 20260504030006 | 6 | 45 | 3.2 | 4.8 | 0.00 | 0.00 | 0.00 | 51 | 1010.2 |
| 20260504025505 | 6 | 35 | 6.4 | 8.0 | 0.00 | 0.00 | 0.00 | 52 | 1010.2 |
| 20260504025005 | 5 | 42 | 6.4 | 8.0 | 0.00 | 0.00 | 0.00 | 56 | 1010.2 |
| 20260504024505 | 6 | 57 | 4.8 | 4.8 | 0.00 | 0.00 | 0.00 | 58 | 1010.5 |
| 20260504024005 | 6 | 52 | 6.4 | 6.4 | 0.00 | 0.00 | 0.00 | 53 | 1010.5 |
| 20260504023506 | 6 | 52 | 4.8 | 4.8 | 0.00 | 0.00 | 0.00 | 54 | 1010.2 |
| 20260504023005 | 6 | 49 | 4.8 | 4.8 | 0.00 | 0.00 | 0.00 | 54 | 1010.2 |
| 20260504022505 | 5 | 47 | 4.8 | 4.8 | 0.00 | 0.00 | 0.00 | 49 | 1010.5 |
| 20260504022005 | 5 | 48 | 4.8 | 6.4 | 0.00 | 0.00 | 0.00 | 54 | 1010.5 |
| 20260504021505 | 5 | 53 | 6.4 | 6.4 | 0.00 | 0.00 | 0.00 | 52 | 1010.5 |
| 20260504021005 | 5 | 51 | 4.8 | 6.4 | 0.00 | 0.00 | 0.00 | 54 | 1010.5 |
| 20260504020506 | 5 | 46 | 6.4 | 6.4 | 0.00 | 0.00 | 0.00 | 51 | 1010.5 |
| 20260504020005 | 5 | 46 | 6.4 | 6.4 | 0.00 | 0.00 | 0.00 | 51 | 1010.5 |
| 20260504015505 | 5 | 46 | 6.4 | 6.4 | 0.00 | 0.00 | 0.00 | 51 | 1010.8 |
| 20260504015006 | 5 | 41 | 6.4 | 6.4 | 0.00 | 0.00 | 0.00 | 51 | 1010.5 |
| 20260504014506 | 5 | 41 | 6.4 | 6.4 | 0.00 | 0.00 | 0.00 | 51 | 1010.5 |
| 20260504014006 | 5 | 41 | 6.4 | 6.4 | 0.00 | 0.00 | 0.00 | 51 | 1010.2 |
| 20260504013505 | 5 | 48 | 6.4 | 8.0 | 0.00 | 0.00 | 0.00 | 51 | 1010.2 |
| 20260504013006 | 5 | 42 | 6.4 | 6.4 | 0.00 | 0.00 | 0.00 | 52 | 1010.2 |
| 20260504012505 | 5 | 42 | 6.4 | 6.4 | 0.00 | 0.00 | 0.00 | 52 | 1010.2 |
| 20260504012006 | 5 | 44 | 6.4 | 8.0 | 0.00 | 0.00 | 0.00 | 54 | 1010.2 |
| 20260504011506 | 5 | 54 | 6.4 | 6.4 | 0.00 | 0.00 | 0.00 | 53 | 1010.2 |
| 20260504011006 | 5 | 55 | 4.8 | 6.4 | 0.00 | 0.00 | 0.00 | 49 | 1009.8 |
| 20260504010506 | 6 | 42 | 4.8 | 4.8 | 0.00 | 0.00 | 0.00 | 48 | 1009.8 |
| 20260504010006 | 6 | 42 | 4.8 | 4.8 | 0.00 | 0.00 | 0.00 | 48 | 1009.8 |
| 20260504005506 | 6 | 42 | 4.8 | 4.8 | 0.00 | 0.00 | 0.00 | 48 | 1009.8 |
| 20260504005005 | 6 | 48 | 6.4 | 6.4 | 0.00 | 0.00 | 0.00 | 47 | 1009.5 |
| 20260504004505 | 6 | 39 | 6.4 | 6.4 | 0.00 | 0.00 | 0.00 | 48 | 1009.5 |
| 20260504004006 | 6 | 40 | 6.4 | 6.4 | 0.00 | 0.00 | 0.00 | 49 | 1009.5 |
| 20260504003505 | 6 | 35 | 4.8 | 6.4 | 0.00 | 0.00 | 0.00 | 49 | 1009.5 |
| 20260504003005 | 6 | 42 | 4.8 | 4.8 | 0.00 | 0.00 | 0.00 | 46 | 1009.5 |
| 20260504002505 | 6 | 48 | 6.4 | 6.4 | 0.00 | 0.00 | 0.00 | 46 | 1009.1 |
| 20260504002005 | 8 | 57 | 4.8 | 4.8 | 0.00 | 0.00 | 0.00 | 41 | 1009.5 |
| 20260504001506 | 8 | 57 | 4.8 | 4.8 | 0.00 | 0.00 | 0.00 | 41 | 1009.1 |
| 20260504001005 | 8 | 57 | 4.8 | 4.8 | 0.00 | 0.00 | 0.00 | 41 | 1009.1 |
| 20260504000107 | 8 | 77 | 3.2 | 3.2 | 0.00 | 0.00 | 0.00 | 42 | 1008.8 |
| 20260503235505 | 8 | 88 | 3.2 | 4.8 | 0.00 | 0.00 | 0.00 | 39 | 1008.8 |
| 20260503235006 | 8 | 6 | 3.2 | 4.8 | 0.00 | 0.00 | 0.00 | 36 | 1008.5 |
| 20260503234505 | 8 | 47 | 3.2 | 4.8 | 0.00 | 0.00 | 0.00 | 36 | 1008.5 |
| 20260503234006 | 8 | 36 | 3.2 | 4.8 | 0.00 | 0.00 | 0.00 | 37 | 1008.5 |
| 20260503233505 | 8 | 32 | 3.2 | 6.4 | 0.00 | 0.00 | 0.00 | 36 | 1008.1 |
| 20260503233005 | 8 | 33 | 4.8 | 4.8 | 0.00 | 0.00 | 0.00 | 36 | 1008.5 |
| 20260503232505 | 9 | 48 | 4.8 | 4.8 | 0.00 | 0.00 | 0.00 | 36 | 1008.1 |
| 20260503232005 | 9 | 40 | 4.8 | 4.8 | 0.00 | 0.00 | 0.00 | 35 | 1008.5 |
| 20260503231506 | 9 | 32 | 4.8 | 6.4 | 0.00 | 0.00 | 0.00 | 35 | 1008.1 |
| 20260503231009 | 9 | 31 | 6.4 | 6.4 | 0.00 | 0.00 | 0.00 | 35 | 1008.1 |
| 20260503230506 | 9 | 67 | 4.8 | 4.8 | 0.00 | 0.00 | 0.00 | 35 | 1008.1 |
| 20260503230006 | 9 | 30 | 4.8 | 6.4 | 0.00 | 0.00 | 0.00 | 36 | 1008.1 |
| 20260503225505 | 9 | 46 | 6.4 | 6.4 | 0.00 | 0.00 | 0.00 | 35 | 1008.1 |
| 20260503225005 | 10 | 20 | 4.8 | 6.4 | 0.00 | 0.00 | 0.00 | 36 | 1008.1 |
| 20260503224505 | 10 | 55 | 6.4 | 6.4 | 0.00 | 0.00 | 0.00 | 35 | 1008.1 |
| 20260503224005 | 10 | 82 | 1.6 | 8.0 | 0.00 | 0.00 | 0.00 | 36 | 1008.1 |
| 20260503223505 | 10 | 135 | 3.2 | 9.7 | 0.00 | 0.00 | 0.00 | 33 | 1008.1 |
| 20260503223006 | 10 | 84 | 8.0 | 8.0 | 0.00 | 0.00 | 0.00 | 31 | 1008.1 |
| 20260503222505 | 10 | 120 | 4.8 | 9.7 | 0.00 | 0.00 | 0.00 | 33 | 1008.1 |
| 20260503222005 | 11 | 61 | 6.4 | 8.0 | 0.00 | 0.00 | 0.00 | 33 | 1008.1 |
| 20260503221506 | 11 | 97 | 4.8 | 8.0 | 0.00 | 0.00 | 0.00 | 31 | 1008.1 |
| 20260503221005 | 11 | 84 | 4.8 | 8.0 | 0.00 | 0.00 | 0.00 | 32 | 1008.1 |
| 20260503220506 | 11 | 92 | 4.8 | 8.0 | 0.00 | 0.00 | 0.00 | 33 | 1008.1 |
| 20260503220005 | 11 | 104 | 4.8 | 6.4 | 0.00 | 0.00 | 0.00 | 32 | 1008.1 |
| 20260503215505 | 11 | 253 | 4.8 | 12.9 | 0.00 | 0.00 | 0.00 | 30 | 1008.1 |
| 20260503215005 | 11 | 127 | 4.8 | 11.3 | 0.00 | 0.00 | 0.00 | 31 | 1008.1 |
| 20260503214506 | 11 | 78 | 4.8 | 8.0 | 0.00 | 0.00 | 0.00 | 33 | 1008.5 |
| 20260503214006 | 11 | 97 | 9.7 | 9.7 | 0.00 | 0.00 | 0.00 | 32 | 1008.5 |
| 20260503213507 | 11 | 94 | 4.8 | 6.4 | 0.00 | 0.00 | 0.00 | 33 | 1008.5 |
| 20260503213006 | 11 | 80 | 8.0 | 9.7 | 0.00 | 0.00 | 0.00 | 32 | 1008.5 |
| 20260503212506 | 10 | 108 | 8.0 | 8.0 | 0.00 | 0.00 | 0.00 | 34 | 1008.5 |
| 20260503212006 | 10 | 67 | 6.4 | 6.4 | 0.00 | 0.00 | 0.00 | 33 | 1008.5 |
| 20260503211505 | 10 | 292 | 1.6 | 4.8 | 0.00 | 0.00 | 0.00 | 34 | 1008.5 |
| 20260503211005 | 10 | 86 | 6.4 | 9.7 | 0.00 | 0.00 | 0.00 | 34 | 1008.5 |
| 20260503210505 | 10 | 55 | 4.8 | 8.0 | 0.00 | 0.00 | 0.00 | 33 | 1008.8 |
| 20260503210006 | 10 | 214 | 8.0 | 8.0 | 0.00 | 0.00 | 0.00 | 34 | 1008.5 |
| 20260503205505 | 10 | 134 | 9.7 | 9.7 | 0.00 | 0.00 | 0.00 | 35 | 1008.5 |
| 20260503205005 | 10 | 176 | 4.8 | 8.0 | 0.00 | 0.00 | 0.00 | 34 | 1008.5 |
| 20260503204505 | 10 | 135 | 8.0 | 8.0 | 0.00 | 0.00 | 0.00 | 33 | 1008.8 |
| 20260503204006 | 10 | 87 | 6.4 | 8.0 | 0.00 | 0.00 | 0.00 | 36 | 1008.5 |
| 20260503203506 | 10 | 102 | 4.8 | 14.5 | 0.00 | 0.00 | 0.00 | 35 | 1008.8 |
| 20260503203005 | 10 | 221 | 4.8 | 6.4 | 0.00 | 0.00 | 0.00 | 36 | 1008.8 |
| 20260503202505 | 10 | 101 | 8.0 | 9.7 | 0.00 | 0.00 | 0.00 | 36 | 1008.5 |
| 20260503202005 | 10 | 142 | 8.0 | 12.9 | 0.00 | 0.00 | 0.00 | 35 | 1008.8 |
| 20260503201506 | 10 | 129 | 6.4 | 8.0 | 0.00 | 0.00 | 0.00 | 37 | 1008.8 |
| 20260503201006 | 10 | 158 | 4.8 | 6.4 | 0.00 | 0.00 | 0.00 | 36 | 1009.1 |
| 20260503200506 | 9 | 83 | 8.0 | 8.0 | 0.00 | 0.00 | 0.00 | 38 | 1009.1 |
| 20260503200005 | 8 | 72 | 4.8 | 8.0 | 0.00 | 0.00 | 0.00 | 38 | 1009.1 |
| 20260503195506 | 9 | 153 | 8.0 | 9.7 | 0.00 | 0.00 | 0.00 | 37 | 1009.1 |
| 20260503195005 | 9 | 56 | 6.4 | 9.7 | 0.00 | 0.00 | 0.00 | 39 | 1009.1 |
| 20260503194506 | 8 | 45 | 4.8 | 9.7 | 0.00 | 0.00 | 0.00 | 37 | 1009.1 |
| 20260503194005 | 9 | 11 | 3.2 | 12.9 | 0.00 | 0.00 | 0.00 | 37 | 1009.5 |
| 20260503193505 | 9 | 337 | 1.6 | 8.0 | 0.00 | 0.00 | 0.00 | 38 | 1009.8 |
| 20260503193005 | 9 | 138 | 1.6 | 17.7 | 0.00 | 0.00 | 0.00 | 38 | 1009.5 |
| 20260503192505 | 9 | 130 | 8.0 | 11.3 | 0.00 | 0.00 | 0.00 | 38 | 1009.5 |
| 20260503192006 | 9 | 152 | 4.8 | 12.9 | 0.00 | 0.00 | 0.00 | 37 | 1009.5 |
| 20260503191505 | 10 | 246 | 3.2 | 14.5 | 0.00 | 0.00 | 0.00 | 35 | 1009.5 |
| 20260503191006 | 9 | 310 | 4.8 | 11.3 | 0.00 | 0.00 | 0.00 | 37 | 1009.5 |
| 20260503190505 | 8 | 210 | 8.0 | 14.5 | 0.00 | 0.00 | 0.00 | 37 | 1009.8 |
| 20260503190005 | 8 | 136 | 11.3 | 12.9 | 0.00 | 0.00 | 0.00 | 38 | 1009.8 |
| 20260503185505 | 8 | 67 | 3.2 | 16.1 | 0.00 | 0.00 | 0.00 | 37 | 1009.8 |
| 20260503185005 | 9 | 114 | 8.0 | 12.9 | 0.00 | 0.00 | 0.00 | 36 | 1009.8 |
| 20260503184506 | 8 | 93 | 4.8 | 9.7 | 0.00 | 0.00 | 0.00 | 39 | 1009.8 |
| 20260503184005 | 8 | 67 | 8.0 | 9.7 | 0.00 | 0.00 | 0.00 | 39 | 1009.8 |
| 20260503183506 | 8 | 144 | 1.6 | 6.4 | 0.00 | 0.00 | 0.00 | 38 | 1009.8 |
| 20260503183006 | 8 | 129 | 6.4 | 8.0 | 0.00 | 0.00 | 0.00 | 38 | 1009.8 |
| 20260503182506 | 8 | 102 | 9.7 | 16.1 | 0.00 | 0.00 | 0.00 | 37 | 1009.8 |
| 20260503182006 | 8 | 189 | 3.2 | 14.5 | 0.00 | 0.00 | 0.00 | 38 | 1009.8 |
| 20260503181505 | 8 | 55 | 9.7 | 9.7 | 0.00 | 0.00 | 0.00 | 38 | 1010.2 |
| 20260503181006 | 8 | 260 | 4.8 | 14.5 | 0.00 | 0.00 | 0.00 | 38 | 1009.8 |
| 20260503180505 | 8 | 106 | 4.8 | 8.0 | 0.00 | 0.00 | 0.00 | 38 | 1009.8 |
| 20260503180005 | 8 | 77 | 4.8 | 11.3 | 0.00 | 0.00 | 0.00 | 37 | 1009.8 |
| 20260503175505 | 8 | 67 | 11.3 | 12.9 | 0.00 | 0.00 | 0.00 | 39 | 1009.8 |
| 20260503175005 | 8 | 135 | 4.8 | 9.7 | 0.00 | 0.00 | 0.00 | 40 | 1009.8 |
| 20260503174505 | 8 | 75 | 11.3 | 12.9 | 0.00 | 0.00 | 0.00 | 41 | 1009.8 |
| 20260503174006 | 8 | 102 | 6.4 | 9.7 | 0.00 | 0.00 | 0.00 | 38 | 1009.8 |
| 20260503173506 | 8 | 92 | 4.8 | 11.3 | 0.00 | 0.00 | 0.00 | 37 | 1009.8 |
| 20260503173006 | 8 | 126 | 8.0 | 11.3 | 0.00 | 0.00 | 0.00 | 40 | 1009.8 |
| 20260503172505 | 8 | 85 | 6.4 | 11.3 | 0.00 | 0.00 | 0.00 | 38 | 1009.8 |
| 20260503172005 | 8 | 304 | 3.2 | 14.5 | 0.00 | 0.00 | 0.00 | 39 | 1009.8 |
| 20260503171506 | 8 | 96 | 11.3 | 11.3 | 0.00 | 0.00 | 0.00 | 39 | 1009.8 |
| 20260503171005 | 8 | 94 | 11.3 | 14.5 | 0.00 | 0.00 | 0.00 | 41 | 1009.8 |
| 20260503170506 | 8 | 121 | 12.9 | 14.5 | 0.00 | 0.00 | 0.00 | 40 | 1010.2 |
| 20260503151005 | 7 | 60 | 9.7 | 11.3 | 0.00 | 0.00 | 0.00 | 46 | 1010.5 |
| 20260503150505 | 8 | 54 | 11.3 | 19.3 | 0.00 | 0.00 | 0.00 | 45 | 1010.5 |